GEFSCGP_con_prob3kmehi_336.txt.gz
EHI
0 0 0 0 0 0 0 0 0 0 0 0 0 0 1 3 4 7 9 7 4 5 9 14 15 15 15 13 10 10 10 8 5 4 2 1 0 1 1 2 3 3 3 3
0 0 0 0 0 0 0 0 0 0 0 0 0 0 1 3 4 6 9 9 6 6 11 14 15 16 16 13 11 11 11 9 6 4 3 2 1 1 1 1 2 3 3 2
0 0 0 0 0 0 0 0 0 0 0 0 0 1 2 3 4 6 10 10 8 8 11 14 14 16 16 13 11 11 11 10 8 6 5 4 2 1 1 1 1 3 2 1
0 0 0 0 0 0 0 0 0 0 0 0 1 2 2 1 2 5 9 10 9 10 12 14 14 16 16 13 11 11 10 10 9 8 7 5 3 2 2 2 2 2 2 1
0 0 0 0 0 0 0 0 0 0 0 0 1 2 1 0 1 3 6 7 9 11 13 15 16 16 16 14 12 12 12 11 11 10 8 5 4 3 3 3 3 2 1 0
0 0 0 0 0 0 0 0 0 0 0 0 1 1 0 0 0 2 4 6 8 12 14 16 17 17 17 16 15 15 16 15 14 12 9 6 4 3 3 3 3 2 1 1
0 0 0 0 0 0 0 0 0 0 0 0 0 0 0 0 0 1 3 5 8 12 13 14 16 17 17 18 18 20 20 19 16 13 10 7 4 3 3 3 3 2 2 3
0 0 0 0 0 0 0 0 0 0 0 0 0 0 0 0 0 0 1 4 7 9 10 11 14 17 18 19 22 25 23 21 18 15 11 7 4 3 3 4 3 3 4 6
0 0 0 0 0 0 0 0 0 0 0 0 0 0 0 0 0 0 0 2 5 6 5 6 11 16 17 19 24 27 25 21 20 17 12 8 5 4 5 5 4 4 5 6
0 0 0 0 0 0 0 0 0 0 0 0 0 0 0 0 0 0 0 1 4 4 2 2 6 11 14 19 25 29 25 21 20 18 14 10 8 7 7 7 6 6 6 6
0 0 0 0 0 0 0 0 0 0 0 0 0 0 0 0 0 0 0 1 4 5 3 2 4 6 12 20 27 29 25 21 20 20 18 14 11 10 10 9 7 8 8 7
0 0 0 0 0 0 0 0 0 0 0 0 0 0 0 0 0 0 0 2 5 7 6 5 5 7 15 25 30 30 26 22 20 21 21 18 14 12 11 10 8 7 7 8
0 0 0 0 0 0 0 0 0 0 0 0 0 0 0 0 1 1 2 3 6 8 9 9 9 12 20 28 32 30 27 23 22 23 23 20 15 13 12 12 11 9 9 9
0 0 0 0 0 0 0 0 0 0 0 0 0 0 0 2 2 3 3 4 5 8 11 12 13 16 22 27 29 28 26 26 26 25 24 21 18 16 16 15 14 13 11 11
0 0 0 0 0 0 0 0 0 0 0 0 0 0 1 3 4 3 3 4 5 8 11 13 13 16 20 24 25 26 27 28 29 28 25 22 20 19 18 16 14 13 12 12
0 0 0 0 0 0 0 0 0 0 0 1 1 0 2 4 3 2 3 5 7 9 12 15 15 16 19 22 22 23 25 26 28 28 26 24 20 19 18 16 14 13 12 12
0 0 0 0 0 0 0 0 0 0 0 1 1 1 3 4 3 3 5 7 9 11 14 17 17 17 19 19 19 20 22 24 26 26 24 22 21 19 17 17 15 12 11 10
0 0 0 0 0 0 0 0 0 0 0 1 2 2 4 6 7 8 9 11 12 13 16 17 18 19 19 17 18 21 23 24 24 23 20 20 20 18 17 17 15 12 10 11
0 0 0 0 0 0 0 0 0 0 0 2 4 5 7 10 12 12 12 12 14 15 17 17 18 21 22 20 22 25 26 25 24 23 21 20 19 17 15 15 14 13 12 12
0 0 0 0 0 0 0 0 0 0 0 3 7 9 11 13 13 12 11 12 13 14 15 16 19 23 25 24 25 27 25 24 24 23 21 18 16 13 13 14 14 14 14 14
0 0 0 0 0 0 0 0 0 0 1 4 8 10 11 12 11 11 11 11 11 12 13 15 17 20 23 24 24 24 21 20 20 19 18 16 14 11 11 13 13 14 15 15
0 0 0 0 0 0 0 1 0 1 4 7 9 10 11 12 12 12 12 11 12 14 15 14 13 14 17 19 20 20 17 15 15 14 15 16 15 12 12 13 11 11 13 14
0 0 0 1 1 0 1 1 2 5 8 10 10 12 13 13 12 11 11 11 12 13 13 12 10 11 13 15 17 16 15 15 14 14 16 17 16 14 14 12 10 9 11 13
0 0 0 1 1 2 3 5 7 10 12 12 12 14 15 14 11 9 9 10 10 11 11 11 11 12 13 14 14 14 14 16 16 17 18 18 17 16 15 13 10 8 10 12
0 0 0 1 2 3 5 8 12 14 13 13 14 15 16 14 10 8 8 8 9 11 13 13 12 11 11 12 13 13 14 16 17 18 19 18 17 16 15 13 10 7 7 9
0 0 0 1 2 3 5 8 12 14 14 13 13 14 15 14 11 9 7 7 9 12 14 14 11 9 9 10 12 13 14 15 16 18 18 17 17 17 15 12 9 6 4 4

GEFSCGP_con_prob3kmehi_342.txt.gz
EHI
0 0 0 0 0 0 0 0 0 0 0 0 0 0 1 2 1 1 2 3 4 5 4 5 8 9 7 6 6 4 2 1 0 0 0 0 0 0 0 0 0 1 1 1
0 0 0 0 0 0 0 0 0 0 0 0 0 0 1 2 2 2 2 3 4 5 6 8 10 9 7 6 6 4 3 2 1 0 0 0 0 0 0 0 0 1 2 2
0 0 0 0 0 0 0 0 0 0 0 0 0 0 0 1 2 2 2 2 3 5 7 10 11 9 8 7 6 4 3 3 2 1 1 1 1 0 0 0 0 1 2 3
0 0 0 0 0 0 0 0 0 0 0 0 0 0 0 1 2 2 1 1 2 4 6 10 11 9 8 8 7 6 4 3 3 3 2 2 2 1 0 0 0 0 1 2
0 0 0 0 0 0 0 0 0 0 0 0 0 0 0 0 1 2 2 1 1 3 5 8 9 8 7 7 8 7 5 4 4 4 3 3 3 1 1 0 0 0 0 1
0 0 0 0 0 0 0 0 0 0 0 0 0 0 0 0 0 1 2 2 2 3 3 6 7 7 7 7 8 8 7 6 6 6 4 3 3 3 2 1 0 0 0 0
0 0 0 0 0 0 0 0 0 0 0 0 0 0 0 0 0 0 1 2 3 3 3 5 6 7 7 7 8 9 9 8 8 8 6 4 3 3 3 2 1 1 0 0
0 0 0 0 0 0 0 0 0 0 0 0 0 0 0 0 0 0 0 1 2 3 4 4 5 7 8 8 8 9 9 9 10 10 9 7 4 3 3 3 3 2 1 1
0 0 0 0 0 0 0 0 0 0 0 0 0 0 0 0 0 0 0 0 1 3 4 3 3 5 8 8 7 7 8 8 9 11 10 8 6 4 3 3 3 3 3 2
0 0 0 0 0 0 0 0 0 0 0 0 0 0 0 0 0 0 0 1 2 3 2 1 1 4 7 8 7 7 6 7 8 10 10 9 6 4 3 4 3 3 3 3
0 0 0 0 0 0 0 0 0 0 0 0 0 0 0 0 0 1 1 1 2 2 1 0 0 2 5 7 8 8 7 7 8 9 9 9 8 5 4 4 4 3 3 3
0 0 0 0 0 0 0 0 0 0 0 0 0 0 0 0 1 1 1 1 1 1 0 0 0 1 4 7 9 9 8 8 8 9 8 9 8 6 4 4 3 3 3 3
0 0 0 0 0 0 0 0 0 0 0 0 0 0 0 0 1 1 1 0 1 1 1 1 0 1 3 6 9 9 9 9 9 9 7 7 7 7 5 4 3 3 3 4
0 0 0 0 0 0 0 0 0 0 0 0 0 0 0 0 0 0 1 1 2 3 2 2 1 0 2 6 9 9 9 10 11 10 8 7 7 7 7 6 6 5 5 6
0 0 0 0 0 0 0 0 0 0 0 0 0 0 0 0 0 1 2 4 5 4 3 2 1 1 3 6 9 9 8 10 12 11 9 7 6 6 7 8 8 8 8 8
0 0 0 0 0 0 0 0 0 1 1 0 0 0 0 1 2 3 4 6 7 5 3 1 1 2 4 6 7 7 7 10 12 12 10 8 7 7 8 8 8 8 7 7
0 0 0 0 0 0 0 0 0 1 1 0 0 0 1 3 5 5 6 7 6 4 1 1 2 3 4 4 4 5 7 9 12 13 12 10 9 9 8 8 7 5 4 5
0 0 0 0 0 0 0 0 0 1 1 0 0 0 1 3 4 5 5 5 4 2 1 1 2 3 4 4 4 5 7 9 13 15 15 13 12 11 10 8 6 3 2 3
0 0 0 0 0 0 0 0 0 0 0 0 0 0 1 1 2 3 3 3 2 2 1 0 1 3 5 6 6 6 7 9 13 16 15 13 13 13 10 8 7 5 4 4
0 0 0 0 0 0 0 0 0 0 0 0 0 0 0 0 1 1 2 2 3 3 2 1 1 2 4 5 7 7 7 8 9 11 11 11 12 13 11 9 8 7 6 6
0 0 0 0 0 0 0 0 0 0 0 0 0 0 0 0 1 2 4 5 5 5 5 4 2 1 2 4 7 8 7 5 5 6 7 7 10 13 13 11 9 8 6 6
0 0 0 0 0 0 0 0 0 0 0 0 0 1 1 2 3 6 7 7 7 7 8 7 5 2 2 4 6 6 4 3 4 4 5 6 8 11 12 11 10 9 7 6
0 0 0 0 0 0 0 0 0 0 0 0 0 1 4 6 7 8 7 7 8 8 8 8 7 6 5 4 5 4 3 3 4 5 6 6 7 8 10 10 11 11 9 6
0 0 0 0 0 0 1 1 0 0 0 0 1 3 7 9 8 7 6 8 8 7 6 6 6 6 5 3 3 3 2 3 4 4 5 6 7 6 7 9 11 11 10 7
0 0 0 0 0 0 1 1 0 0 1 1 3 5 7 8 7 5 5 7 7 6 5 5 5 4 4 3 2 1 1 1 2 3 4 5 6 5 6 7 7 8 7 6
0 0 0 0 0 0 1 1 0 1 2 3 4 6 7 7 6 4 4 5 6 6 6 5 4 4 4 3 1 0 0 0 0 1 3 4 6 7 6 5 4 4 3 3

GEFSCGP_con_prob3kmehi_348.txt.gz
EHI
0 0 0 0 0 0 0 0 0 0 0 0 0 0 1 2 4 6 8 6 4 4 5 5 5 7 9 10 10 9 9 9 8 5 3 4 4 3 2 1 0 0 0 1
0 0 0 0 0 0 0 0 0 0 0 0 0 0 1 2 3 4 6 5 4 6 8 7 7 7 9 10 10 9 8 8 8 6 5 5 4 3 2 1 0 0 1 1
0 0 0 0 0 0 0 0 0 0 0 0 0 0 2 2 1 1 3 4 4 6 9 10 10 9 9 11 11 10 8 9 9 9 9 9 7 5 3 2 1 1 2 1
0 0 0 0 0 0 0 0 0 0 0 0 0 0 1 2 1 1 2 4 3 4 6 8 10 11 10 10 12 12 12 13 14 13 13 12 10 8 6 4 3 3 2 1
0 0 0 0 0 0 0 0 0 0 0 0 0 0 1 2 2 2 3 4 3 2 3 4 7 10 10 10 11 13 17 19 20 19 17 15 13 11 9 7 6 5 4 2
0 0 0 0 0 0 0 0 0 0 0 0 0 0 1 2 2 2 2 3 4 4 4 4 6 9 11 11 12 15 20 23 24 23 20 18 15 14 12 10 8 7 5 4
0 0 0 0 0 0 0 0 0 0 0 0 0 0 0 1 1 1 1 2 4 5 6 6 7 9 12 13 15 18 23 26 25 24 22 21 19 18 15 12 10 9 7 6
0 0 0 0 0 0 0 0 0 0 0 0 0 0 0 0 0 1 1 2 4 5 6 7 8 9 10 13 16 19 24 26 24 23 23 24 22 20 17 14 11 10 9 8
0 0 0 0 0 0 0 0 0 0 0 0 0 0 0 0 1 2 3 3 3 4 5 7 8 8 8 10 14 18 22 24 24 23 22 23 22 21 19 17 13 10 9 9
0 0 0 0 0 0 0 0 0 0 0 0 0 0 0 1 2 3 4 5 5 4 5 8 9 8 6 7 11 15 19 22 23 22 21 20 20 21 19 17 13 9 9 11
0 0 0 0 0 0 0 0 0 0 0 0 0 0 0 2 4 5 6 7 7 5 6 10 11 8 6 6 7 11 14 18 19 19 19 19 19 19 18 15 11 9 10 13
0 0 0 0 0 0 0 0 0 0 0 0 0 0 1 3 6 8 9 9 9 7 7 12 14 11 8 7 7 8 9 13 15 16 17 18 18 18 17 13 10 10 12 16
0 0 0 0 0 0 0 0 0 0 0 0 0 1 2 5 8 10 11 10 9 9 9 12 16 17 15 13 12 10 10 12 14 15 16 18 19 20 17 14 11 11 15 19
0 0 0 0 0 0 0 0 0 0 0 0 1 2 3 4 7 9 10 10 9 10 12 14 19 21 20 19 19 18 17 18 17 16 17 20 21 21 19 17 16 15 15 16
0 0 0 0 0 0 0 0 0 0 0 0 1 2 3 4 5 8 10 10 10 11 15 19 22 22 22 23 25 25 25 25 23 20 21 23 24 23 22 22 21 19 17 16
0 0 0 0 0 0 0 0 0 0 0 0 1 1 2 3 5 8 11 12 12 14 17 20 22 22 22 23 25 25 27 28 27 25 25 26 26 25 24 24 24 22 21 21
0 0 0 0 0 0 0 1 1 1 1 0 1 1 2 4 8 10 12 14 16 17 18 19 19 21 23 23 20 21 25 26 25 23 24 25 26 24 24 24 24 24 24 25
0 0 0 0 0 0 0 0 1 2 2 2 2 3 4 7 10 11 13 15 18 19 19 16 16 19 22 21 18 18 20 21 20 19 20 23 25 25 25 25 25 25 25 25
0 0 0 0 0 0 0 0 0 2 4 4 3 3 5 8 9 11 14 16 17 19 17 14 14 18 22 21 19 18 17 16 16 17 20 23 25 26 26 27 28 27 27 27
0 0 0 0 0 0 0 0 0 2 5 5 3 3 5 6 8 11 15 17 18 19 17 13 13 17 21 21 19 16 14 15 17 20 22 24 25 26 26 26 28 28 28 28
0 0 0 0 0 0 0 0 0 3 6 7 7 6 6 9 12 14 16 19 19 19 18 15 16 19 21 21 17 14 13 15 17 19 22 22 22 23 23 24 24 25 26 26
0 0 0 1 1 1 1 2 3 5 7 9 10 10 11 14 17 18 20 21 21 18 17 17 20 23 23 21 17 14 14 15 16 17 20 21 19 18 19 20 21 22 22 22
2 2 2 3 3 3 3 4 6 8 10 11 12 13 15 16 16 18 20 21 20 17 16 17 20 24 23 21 17 15 15 16 17 18 20 21 19 16 16 18 18 18 17 16
3 3 4 5 6 5 5 5 7 9 12 13 13 13 16 14 12 15 18 19 18 16 16 16 19 21 22 21 18 16 17 18 18 19 20 20 18 16 15 17 16 15 14 12
3 3 4 5 6 6 6 6 7 10 13 14 13 13 14 12 9 11 15 17 16 15 16 18 18 18 19 21 20 19 18 19 18 18 18 17 15 13 14 15 15 14 13 13
4 3 4 4 5 6 6 7 8 9 11 12 13 13 12 12 10 9 14 17 15 15 17 18 17 16 16 18 20 20 18 19 19 18 16 14 13 12 13 14 14 14 13 13

GEFSCGP_con_prob3kmehi_354.txt.gz
EHI
0 0 0 0 0 0 0 0 0 1 0 0 0 1 2 3 4 6 11 14 16 19 23 22 20 18 20 28 37 36 32 33 34 30 24 17 13 12 13 14 17 21 19 16
0 0 0 0 0 0 0 0 1 1 1 0 0 0 2 3 4 6 10 14 17 21 26 27 26 23 24 30 38 39 37 38 36 31 25 19 15 14 14 16 20 23 21 19
0 0 0 0 0 0 0 0 1 1 1 1 1 0 1 3 4 5 8 12 16 21 28 33 33 31 30 33 39 43 46 47 42 33 26 21 17 16 16 19 23 25 23 21
0 0 0 0 0 0 0 0 0 1 1 1 1 0 1 3 4 4 7 10 14 19 27 34 38 37 35 34 39 48 54 54 47 37 28 24 21 19 19 21 24 26 25 23
0 0 0 0 0 0 0 0 0 0 1 1 0 1 3 4 4 5 6 8 11 17 24 32 38 40 36 33 40 52 59 58 50 41 34 29 24 22 22 22 23 25 25 25
0 0 0 0 0 0 0 0 0 0 0 0 0 1 3 5 6 6 7 9 11 15 22 30 37 39 36 33 39 52 61 60 53 44 38 33 29 27 27 25 23 21 21 22
0 0 0 0 0 0 0 0 0 0 0 0 0 1 2 4 6 7 9 10 12 15 20 28 35 38 35 32 38 51 61 61 54 46 41 37 35 32 30 27 23 19 18 19
0 0 0 0 0 0 0 0 0 0 0 0 0 1 2 3 5 8 10 11 13 15 18 24 32 35 34 33 38 50 59 60 53 47 43 42 40 35 31 28 23 18 17 17
0 0 0 0 0 0 0 0 0 0 0 0 0 2 3 3 4 7 10 12 13 15 17 22 29 33 33 34 38 47 56 58 54 48 46 46 43 36 31 29 24 21 18 16
0 0 0 0 0 0 0 0 0 0 0 0 0 1 3 3 4 7 11 12 14 16 19 24 29 33 33 33 35 42 51 55 53 48 46 46 43 37 32 30 28 26 23 20
0 0 0 0 0 0 0 0 0 0 0 0 0 1 1 2 4 9 13 16 16 17 21 26 31 34 35 34 33 36 44 50 50 47 46 45 43 40 35 33 33 34 31 29
0 0 0 0 0 0 0 0 0 0 0 0 0 0 0 2 5 11 17 19 19 20 23 26 29 34 37 36 34 35 39 45 46 44 42 42 43 41 37 36 37 38 37 33
0 0 0 0 0 0 0 0 0 0 0 0 0 1 2 4 8 13 19 23 23 24 27 29 31 36 39 41 41 40 40 43 43 40 37 37 39 40 38 36 38 38 35 33
0 0 0 0 0 0 0 0 0 0 1 1 1 2 3 6 10 14 22 27 27 29 33 37 40 42 43 45 46 44 42 42 42 40 38 36 37 39 38 37 37 36 33 32
0 0 0 0 0 0 0 0 0 0 1 2 2 3 4 7 11 17 26 32 31 33 38 43 47 47 46 47 46 43 41 42 44 44 43 40 37 38 39 38 36 34 32 29
0 0 0 0 0 0 0 0 0 0 1 3 3 4 6 11 16 21 29 34 36 38 39 42 45 44 42 44 44 40 39 41 45 45 42 38 35 34 35 34 31 30 28 26
0 0 0 0 0 0 0 0 0 0 1 3 4 6 10 15 19 23 27 32 36 38 39 39 36 34 34 38 40 38 36 38 42 42 38 34 30 27 27 27 27 28 27 25
0 0 0 0 0 0 0 0 0 1 2 3 4 7 13 18 19 22 26 31 36 38 39 37 32 27 28 33 38 37 34 34 37 37 34 30 27 25 24 25 27 28 27 26
0 0 0 0 0 0 0 0 0 1 2 4 5 7 13 18 19 21 27 34 40 41 39 36 32 28 28 33 39 39 34 32 32 31 29 26 25 27 28 28 28 28 26 25
0 0 0 0 0 0 0 0 0 0 2 5 7 9 14 19 22 26 31 37 44 43 38 34 33 31 31 35 39 38 34 30 28 26 25 23 25 28 29 29 28 26 24 23
0 0 0 0 0 0 1 1 2 4 7 9 11 14 19 24 28 32 35 39 44 43 37 34 34 33 35 37 37 35 30 28 27 26 25 25 26 28 28 29 27 24 23 22
0 0 0 0 1 1 2 4 7 11 14 15 17 19 22 26 29 33 37 39 40 41 38 34 32 33 36 38 38 34 30 29 30 31 29 28 27 26 26 27 26 25 24 23
0 0 1 2 2 2 3 6 10 15 17 17 19 21 21 21 26 32 36 37 37 38 35 29 26 30 35 38 37 36 35 33 33 33 30 27 25 23 23 24 25 24 22 21
1 1 2 3 2 2 4 6 10 15 17 16 16 17 17 18 24 32 37 38 36 34 30 25 24 28 33 35 35 35 36 34 32 30 28 26 23 20 19 20 20 18 16 16
3 3 3 4 5 6 7 8 11 13 14 13 12 11 12 16 24 30 36 38 35 31 28 25 26 29 30 30 29 30 32 31 27 26 25 24 21 17 15 14 14 11 9 8
3 3 4 6 8 9 11 11 12 12 11 11 9 9 11 16 22 28 33 37 34 29 27 26 27 29 29 27 25 26 29 28 25 23 22 21 18 15 12 11 10 6 3 3

GEFSCGP_con_prob3kmehi_360.txt.gz
EHI
0 0 0 0 0 0 0 0 0 0 0 0 0 2 7 9 11 14 15 13 10 10 13 17 21 23 21 17 14 13 14 14 13 11 8 7 7 6 6 5 5 4 1 0
0 0 0 0 0 0 0 0 0 0 0 0 0 1 5 9 10 13 15 15 12 12 16 22 25 25 22 17 14 14 16 15 13 11 9 8 7 6 6 6 6 5 3 1
0 0 0 0 0 0 0 0 0 0 0 0 0 1 4 7 9 11 14 15 15 15 20 26 28 26 22 18 16 17 19 17 14 12 10 8 7 6 6 5 6 6 6 5
0 0 0 0 0 0 0 0 0 0 0 0 0 1 4 6 8 11 13 14 14 16 21 27 29 27 24 20 19 21 21 19 16 14 13 10 9 8 6 4 5 5 6 7
0 0 0 0 0 0 0 0 0 0 0 0 0 1 4 6 7 9 12 15 16 15 19 25 29 28 25 22 22 24 24 22 18 16 15 12 10 9 7 6 5 4 4 5
0 0 0 0 0 0 0 0 0 0 0 0 0 1 3 5 5 6 11 17 19 17 17 23 28 28 25 25 26 27 27 26 22 18 15 14 11 9 10 10 8 5 4 4
0 0 0 0 0 0 0 0 0 0 0 0 0 1 3 4 4 6 11 17 20 19 17 20 25 26 26 28 30 30 29 28 25 21 18 16 13 11 12 11 9 6 4 4
0 0 0 0 0 0 0 0 0 0 0 0 0 1 3 4 4 6 11 15 19 20 19 20 22 25 26 28 29 30 28 27 27 26 23 19 16 13 12 10 9 6 4 2
0 0 0 0 0 0 0 0 0 0 0 0 0 1 2 4 5 7 11 14 19 22 23 23 24 24 25 24 25 26 26 25 25 27 26 23 18 15 12 11 9 7 4 2
0 0 0 0 0 0 0 0 0 0 0 0 0 0 1 4 6 8 12 15 18 22 24 24 23 23 22 21 20 22 23 22 23 25 26 24 19 15 14 13 12 8 6 4
0 0 0 0 0 0 0 0 0 0 0 0 0 0 1 4 7 10 12 15 18 21 21 19 20 19 18 17 17 19 21 22 22 22 22 21 18 16 15 15 13 10 8 7
0 0 0 0 0 0 0 0 0 0 0 0 0 0 1 4 7 9 12 14 17 19 19 19 20 18 15 14 16 19 23 24 22 20 19 18 17 16 16 15 13 11 10 10
0 0 0 0 0 0 0 0 0 0 0 0 0 0 2 5 6 7 10 14 18 19 21 22 23 21 17 16 18 21 24 23 19 16 16 16 15 14 14 12 10 10 10 11
0 0 0 0 0 0 0 0 0 0 0 0 0 1 3 6 6 5 8 15 19 21 22 26 26 22 18 17 18 20 21 18 14 12 13 13 12 11 9 7 7 7 8 9
0 0 0 0 0 0 0 0 1 1 0 0 1 1 3 5 6 7 11 17 22 23 25 29 27 20 16 16 18 18 15 13 12 10 10 10 10 8 6 4 5 6 6 6
0 0 0 0 0 0 0 0 1 2 1 1 1 3 4 5 7 10 14 20 23 24 27 29 27 20 16 17 20 18 14 12 12 11 8 8 9 8 5 4 6 5 4 4
0 0 0 0 0 0 0 0 1 3 3 2 2 4 8 10 10 11 15 20 23 24 25 26 25 22 18 18 18 16 13 12 13 12 10 9 9 7 5 5 5 4 3 4
0 0 0 0 0 0 0 0 1 4 5 4 4 7 11 13 12 11 14 19 22 24 22 21 23 23 21 18 15 13 12 12 14 14 14 13 11 8 5 5 4 3 3 4
0 0 0 0 0 0 0 0 2 4 5 5 7 10 14 15 13 13 16 19 21 21 19 20 23 25 24 20 17 16 15 14 13 14 15 14 12 9 6 4 5 5 5 5
0 0 0 0 0 0 0 0 1 2 4 5 9 13 15 14 12 12 14 17 18 17 18 21 24 25 24 21 21 21 19 15 13 12 12 13 13 12 10 9 8 8 7 7
0 0 0 0 0 0 0 0 0 1 2 6 10 13 13 10 7 8 11 14 14 15 18 20 21 21 19 18 21 23 19 13 10 9 9 11 13 14 14 14 12 9 8 8
0 0 0 0 0 0 0 0 0 1 2 6 10 10 9 8 7 8 11 12 14 17 19 19 19 18 16 16 19 18 14 10 8 7 8 9 11 13 14 14 12 8 7 7
0 0 0 0 0 0 0 0 1 2 3 5 7 9 10 11 12 14 14 13 14 17 18 18 19 18 16 15 15 13 10 7 6 7 8 10 10 10 11 12 10 8 6 5
0 0 0 0 0 0 0 0 1 3 4 5 7 10 12 13 15 16 15 14 14 14 14 16 18 17 15 13 11 8 6 5 5 5 7 9 8 8 8 9 9 7 6 5
0 0 0 0 1 1 1 0 2 4 5 7 9 11 12 13 15 16 15 15 15 14 13 14 17 16 13 11 8 5 5 5 4 4 5 6 6 6 7 7 6 4 3 3
0 0 0 0 1 2 2 1 3 6 7 9 9 9 10 12 14 14 15 15 15 15 14 14 16 15 13 11 7 4 5 6 4 3 4 4 5 5 6 6 4 2 1 1

GEFSCGP_con_prob3kmehi_366.txt.gz
EHI
0 0 0 0 0 0 0 0 0 0 0 0 0 0 1 3 4 3 4 3 1 0 1 2 2 2 3 5 9 11 11 8 5 4 4 2 2 2 2 2 1 0 0 0
0 0 0 0 0 0 0 0 0 0 0 0 0 0 1 3 3 3 3 3 1 0 2 4 5 4 4 6 9 11 11 8 6 6 5 3 3 3 3 3 2 1 1 0
0 0 0 0 0 0 0 0 0 0 0 0 0 0 0 2 3 3 3 2 1 1 3 5 6 6 6 7 9 10 9 8 8 8 7 5 4 5 6 5 4 3 3 3
0 0 0 0 0 0 0 0 0 0 0 0 0 0 0 1 3 4 3 2 1 2 4 6 7 6 6 6 7 8 7 7 7 8 8 7 6 6 7 7 6 5 5 5
0 0 0 0 0 0 0 0 0 0 0 0 0 0 0 1 2 3 3 2 2 3 6 8 8 7 6 6 6 6 6 5 6 8 9 8 8 7 7 7 7 6 4 4
0 0 0 0 0 0 0 0 0 0 0 0 0 0 0 0 1 1 3 3 3 5 9 9 8 8 8 7 6 5 5 5 6 8 9 9 9 8 7 7 7 6 4 3
0 0 0 0 0 0 0 0 0 0 0 0 0 0 0 0 0 1 2 4 5 7 9 9 9 10 9 8 6 4 5 6 8 10 12 12 11 10 9 8 7 6 4 3
0 0 0 0 0 0 0 0 0 0 0 0 0 0 0 0 1 2 3 4 5 6 7 8 10 11 9 7 5 3 3 5 8 11 13 13 12 11 10 9 8 6 4 3
0 0 0 0 0 0 0 0 0 0 0 0 0 0 0 2 3 4 4 5 5 5 4 6 9 9 8 6 4 3 3 5 7 9 11 12 13 12 11 10 8 6 4 4
0 0 0 0 0 0 0 0 0 0 0 0 0 0 0 2 4 5 5 5 4 3 3 4 6 6 6 4 2 3 6 7 7 7 8 10 12 12 12 10 8 6 5 4
0 0 0 0 0 0 0 0 0 0 0 0 0 0 0 1 3 4 5 4 2 1 2 4 5 5 3 2 1 3 6 9 9 8 8 9 11 12 13 11 7 5 4 3
0 0 0 0 0 0 0 0 0 0 0 0 0 0 0 0 1 2 4 4 1 1 3 5 6 3 1 1 1 3 7 9 9 9 9 9 9 11 12 11 8 5 3 2
0 0 0 0 0 0 0 0 0 0 0 0 0 0 0 0 0 1 3 3 1 1 3 5 4 2 1 2 2 4 8 8 7 8 9 8 7 8 10 10 9 6 4 3
0 0 0 0 0 0 0 0 0 0 0 0 0 0 0 0 0 1 1 2 2 3 4 5 4 3 3 3 3 5 7 7 5 6 7 6 5 4 6 9 9 6 4 3
0 0 0 0 0 0 0 0 0 0 0 0 1 1 1 0 1 1 1 2 5 7 7 6 5 5 5 4 4 5 6 6 6 7 7 6 5 4 4 6 6 5 3 2
0 0 0 0 0 0 0 0 0 0 0 1 2 1 0 0 1 2 3 4 7 10 9 7 5 4 4 4 5 6 7 7 7 8 8 7 6 4 3 4 4 3 2 1
0 0 0 0 0 0 0 0 0 0 1 1 1 1 1 1 2 3 5 6 7 8 8 6 4 4 3 4 6 8 8 7 7 8 7 6 5 4 3 3 3 2 1 0
0 0 0 0 0 0 0 0 0 0 1 2 1 2 3 5 6 5 6 6 5 5 4 4 4 4 4 5 7 9 9 8 8 8 6 5 5 4 4 4 3 1 1 0
0 0 0 0 0 0 0 0 0 0 1 1 2 4 7 9 9 7 5 5 5 4 3 2 3 5 5 6 8 8 8 9 10 9 7 6 5 5 6 5 4 2 1 1
0 0 0 0 0 0 0 0 0 0 0 1 3 6 8 9 8 6 4 3 3 3 4 4 4 6 8 8 7 7 8 9 10 9 7 6 5 6 7 7 5 3 1 1
0 0 0 0 0 0 0 0 0 0 0 1 3 6 7 6 5 4 2 1 1 2 4 5 6 9 10 8 7 6 7 8 9 8 6 4 4 5 6 8 7 3 1 2
0 0 0 0 0 0 0 0 0 0 0 1 2 4 4 3 3 3 1 0 1 1 3 5 7 9 10 9 7 6 6 6 8 8 6 4 3 4 5 6 6 3 1 2
0 0 0 0 0 0 0 0 0 0 0 1 2 3 3 3 3 2 1 1 2 2 2 4 6 7 7 6 6 5 4 5 6 7 6 4 4 4 4 4 4 2 1 1
0 0 0 0 0 0 0 0 0 0 0 2 3 3 3 4 3 1 0 1 3 4 4 4 5 5 5 4 3 3 4 5 5 5 5 5 5 5 5 4 3 2 2 1
0 0 0 0 0 0 0 0 0 1 2 3 2 2 3 3 2 1 1 2 4 5 5 4 3 4 3 3 2 2 2 3 4 5 5 5 6 7 7 5 2 2 2 1
0 0 0 0 0 0 0 0 1 2 3 3 2 1 2 3 1 1 2 3 5 6 6 4 3 3 3 3 3 2 1 2 5 6 5 5 6 8 8 6 2 1 1 0